Regional Weather Roundup
Issued by NWS

Home | Current Version | Previous Version | Text Only | Print | Product List | Glossary Off
Versions: 1 2 3 4 5 6 7 8 9 10 11 12 13 14 15 16 17 18 19 20 21 22 23 24 25 26 27 28 29 30 31 32 33 34 35 36 37 38 39 40 41 42 43 44 45 46 47 48 49 50

452
ASUS43 KMKX 050200
RWRWI

WISCONSIN REGIONAL WEATHER ROUNDUP
NATIONAL WEATHER SERVICE MILWAUKEE/SULLIVAN WI
800 PM CST SUN DEC 04 2016

NOTE: "FAIR" INDICATES FEW OR NO CLOUDS BELOW 12,000 FEET WITH NO
SIGNIFICANT WEATHER AND/OR OBSTRUCTIONS TO VISIBILITY.

WIZ001-002-006>008-014>016-023>028-050300-
NORTHWEST WISCONSIN

CITY           SKY/WX    TMP DP  RH WIND       PRES   REMARKS
SUPERIOR ARPT  CLOUDY    32  32  99 CALM      29.68F
ASHLAND        CLOUDY    32  30  92 S3        29.70F
HAYWARD        CLOUDY    33  31  92 S9        29.69F WCI  25
SIREN          CLOUDY    34  33  95 SW8       29.71R WCI  27
CUMBERLAND     CLOUDY    32  32 100 SW8       29.71S WCI  25
RICE LAKE      CLOUDY    33  32  96 S7        29.73F WCI  27
CHETEK         LGT SNOW  32  32  99 S5        29.73F WCI  28
LADYSMITH      CLOUDY    32  32  99 S7        29.74F WCI  26
EAU CLAIRE     FLURRIES  33  32  96 S8        29.75S WCI  26
MENOMONIE      LGT RAIN  33  33 100 S7        29.75S WCI  27
NEW RICHMOND   CLOUDY    34  34  99 SW9       29.74S WCI  26
OSCEOLA        CLOUDY    35  35 100 SW7       29.76S WCI  29
$$

WIZ003>005-009-010-017-018-050300-
NORTH CENTRAL WISCONSIN

CITY           SKY/WX    TMP DP  RH WIND       PRES   REMARKS
MANITOWISH WTR MIX PCPN  28  28 100 S8        29.70F WCI  20
ARBOR VITAE    CLOUDY    32  30  94 S8        29.71F FOG     WCI  25
WOODRUFF       CLOUDY    32  30  94 S8        29.71F FOG     WCI  25
RHINELANDER    CLOUDY    30  29  96 SW9       29.72F FOG     WCI  22
EAGLE RIVER    LGT SNOW  28  28 100 S3        29.71F
LAND O LAKES   LGT SNOW  29  28  96 S5        29.72F WCI  24
PHILLIPS       CLOUDY    29  29 100 S8        29.70F WCI  21
TOMAHAWK       CLOUDY    29  28  94 CALM      29.74F FOG
MEDFORD        MIX PCPN  30  29  96 S7        29.74F WCI  23
MERRILL        CLOUDY    30  30  99 SW8       29.76S WCI  23
$$

WIZ029-030-035-036-043>047-050300-
CENTRAL WISCONSIN

CITY           SKY/WX    TMP DP  RH WIND       PRES   REMARKS
WAUSAU         CLOUDY    30  29  96 SW7       29.75F FOG     WCI  23
MOSINEE        CLOUDY    30  30 100 S7        29.77  FOG     WCI  23
MARSHFIELD     FRZ RAIN  31  29  92 SW9       29.75F FOG     WCI  23
STEVENS POINT  CLOUDY    29  29 100 SW7       29.79F FOG     WCI  22
WAUPACA        CLOUDY    33  31  94 SW3       29.81F
WAUTOMA        CLOUDY    31  29  92 SW7       29.82F WCI  24
WISC RAPIDS    CLOUDY    32  31  96 SW8       29.80F FOG     WCI  25
CAMP DOUGLAS   NOT AVBL
$$

WIZ011>013-019>022-031-037>040-048>050-050300-
NORTHEAST WISCONSIN

CITY           SKY/WX    TMP DP  RH WIND       PRES   REMARKS
ANTIGO         CLOUDY    28  28  98 SW8       29.75F FOG     WCI  20
SHAWANO        LGT RAIN  32  31  95 CALM      29.80F
OCONTO         CLOUDY    32  31  98 CALM      29.81F
STURGEON BAY   MIX PCPN  32  31  96 S8        29.81F FOG     WCI  25
GREEN BAY      LGT SNOW  34  33  96 SW9       29.81F FOG     WCI  27
MANITOWOC      LGT SNOW  33  30  88 SW5       29.83F FOG     WCI  29
APPLETON       LGT SNOW  30  30 100 SW8       29.80F WCI  23
CLINTONVILLE   MIX PCPN  32  30  93 S7        29.80F WCI  26
OSHKOSH        CLOUDY    31  29  92 SW9       29.81F FOG     WCI  23
$$

WIZ032>034-041-042-053>061-050300-
SOUTHWEST WISCONSIN

CITY           SKY/WX    TMP DP  RH WIND       PRES   REMARKS
LA CROSSE      PTCLDY    36  32  85 S10       29.81F WCI  28
SPARTA         CLOUDY    32  32  99 SW5       29.82S WCI  28
VIROQUA        CLOUDY    32  32 100 W15       29.82R WCI  22
BOSCOBEL       CLOUDY    34  32  92 SW7       29.86S WCI  28
PRAIRIE DU CHI CLOUDY    34  31  88 W10       29.86F WCI  26
PLATTEVILLE    CLOUDY    32  32 100 SW9       29.86F WCI  24
$$

WIZ056-057-062-063-064-067-068-050300-
SOUTH CENTRAL WISCONSIN

CITY           SKY/WX    TMP DP  RH WIND       PRES   REMARKS
REEDSBURG      CLOUDY    31  31 100 SW6       29.82F WCI  25
BARABOO/DELLS  CLOUDY    31  29  95 SW6       29.82S FOG     WCI  25
LONE ROCK      CLOUDY    33  30  88 SW5       29.85F WCI  29
MINERAL POINT  CLOUDY    32  32 100 SW9       29.84F FOG     WCI  24
MADISON        LGT SNOW  31  30  96 VRB6      29.85S FOG     WCI  25
MIDDLETON      CLOUDY    32  32 100 SW7       29.85S WCI  26
WATERTOWN      LGT SNOW  31  31 100 SW5       29.84F WCI  26
MONROE         CLOUDY    32  30  93 SW12      29.85F FOG     WCI  23
JANESVILLE     CLOUDY    32  32 100 VRB6      29.87S FOG     WCI  26
$$

WIZ051-052-058>065-066-070>072-050300-
SOUTHEAST WISCONSIN

CITY           SKY/WX    TMP DP  RH WIND       PRES   REMARKS
MILWAUKEE      LGT SNOW  34  30  85 W8        29.85F FOG     WCI  27
WAUKESHA       LGT SNOW  28  28 100 SW7       29.86F WCI  21
MILWAUKEE/TIMM LGT SNOW  30  28  93 SW3       29.86F
RACINE         CLOUDY    32  30  92 SW5       29.87F FOG     WCI  27
BURLINGTON     PTCLDY    28  28  99 CALM      29.86F FOG
KENOSHA        CLOUDY    32  30  92 SW5       29.86F FOG     WCI  27
FOND DU LAC    CLOUDY    32  28  85 SW9       29.83S WCI  24
SHEBOYGAN      LGT SNOW  32  29  88 SW9       29.83F FOG     WCI  24
WEST BEND      LGT SNOW  32  32 100 SW5       29.84F WCI  27
JUNEAU         CLOUDY    30  29  96 SW8       29.85S FOG     WCI  22
$$

LSZ147-162-050300-
LAKE SUPERIOR

STATION/POSITION TIME  TEMP    WIND        PRES    WAVE
                       AIR SEA DIR/SP/G            HT/PER
                 (UTC) (F)     (DEG/KT/KT) (MB)    (FT/S)
DEVILS ISLAND    0100   34     190/  9/ 13 1006.7F
PORT WING        0030   33     160/  5/  8 1006.1F
SAXON HARBOR     0040   34     190/  6/ 11 1006.8F
$$

LMZ867-665-643>646-050300-
LAKE MICHIGAN

STATION/POSITION TIME  TEMP    WIND        PRES    WAVE
                       AIR SEA DIR/SP/G            HT/PER
                 (UTC) (F)     (DEG/KT/KT) (MB)    (FT/S)
CHAMBERS ISLAND  0030   33     120/  2/  4 1009.8F
NORTHPORT PIER   2340   32        CALM     1011.5F
SISTER BAY       0123   33        CALM       N/A
ALGOMA LAKESHORE 0121          230/  6/  7   N/A
KEWAUNEE LAKESHO 0130   33        CALM     1009.8F
SHEBOYGAN LAKESH 0100   33     220/ 10/ 11 1011.3F
PORT WASHINGTON  0040   33     240/  4/  7 1012.5F
MILWAUKEE LAKESH 0130   33     230/  8/  9   N/A
S MID LAKE BUOY  2350   36 48  180/ 12/ 14 1012.7R   3/ 5
KENOSHA   LAKESH 0100   33     250/  4/  6 1012.2
$$

TC  - TEMPERATURE IN CELSIUS
VSB - VISIBILITY IN STATUTE MILES
WCI - WIND CHILL INDEX
HX  - HEAT INDEX





USA.gov is the U.S. government's official web portal to all federal, state and local government web resources and services.